Time,TemperatureF,DewpointF,PressureIn,WindDirection,WindDirectionDegrees,WindSpeedMPH,WindSpeedGustMPH,Humidity,HourlyPrecipIn,Conditions,Clouds,dailyrainin,SolarRadiationWatts/m^2,SoftwareType,DateUTC
2013-03-01 00:02:00,37.0,36.0,-100.00,NW,308,3.0,5.0,98,0.00,,,0.11,0.000000,,2013-03-01 05:02:00,
2013-03-01 00:11:00,37.0,36.0,-100.00,NW,308,3.0,5.0,98,0.00,,,0.11,0.000000,,2013-03-01 05:11:00,
2013-03-01 00:22:00,37.0,36.0,-100.00,NW,308,3.0,5.0,98,0.00,,,0.11,0.000000,,2013-03-01 05:22:00,
2013-03-01 00:53:00,36.0,35.0,-100.00,NW,322,5.0,7.0,96,0.00,,,0.11,1.000000,,2013-03-01 05:53:00,
2013-03-01 01:02:00,36.0,35.0,-100.00,NW,322,5.0,7.0,96,0.00,,,0.11,1.000000,,2013-03-01 06:02:00,
2013-03-01 01:12:00,36.0,35.0,-100.00,NW,322,5.0,7.0,96,0.00,,,0.11,1.000000,,2013-03-01 06:12:00,
2013-03-01 01:22:00,36.0,35.0,-100.00,NW,322,5.0,7.0,96,0.00,,,0.11,1.000000,,2013-03-01 06:22:00,
2013-03-01 01:53:00,36.0,34.0,-100.00,NW,326,5.0,8.0,93,0.00,,,0.11,1.000000,,2013-03-01 06:53:00,
2013-03-01 02:02:00,36.0,34.0,-100.00,NW,326,5.0,8.0,93,0.00,,,0.11,1.000000,,2013-03-01 07:02:00,
2013-03-01 02:12:00,36.0,34.0,-100.00,NW,326,5.0,8.0,93,0.00,,,0.11,1.000000,,2013-03-01 07:12:00,
2013-03-01 02:22:00,36.0,34.0,-100.00,NW,326,5.0,8.0,93,0.00,,,0.11,1.000000,,2013-03-01 07:22:00,
2013-03-01 02:52:00,35.0,33.0,-100.00,NW,311,5.0,8.0,94,0.00,,,0.11,1.000000,,2013-03-01 07:52:00,
2013-03-01 03:02:00,35.0,33.0,-100.00,NW,311,5.0,8.0,94,0.00,,,0.11,1.000000,,2013-03-01 08:02:00,
2013-03-01 03:12:00,35.0,33.0,-100.00,NW,311,5.0,8.0,94,0.00,,,0.11,1.000000,,2013-03-01 08:12:00,
2013-03-01 03:22:00,35.0,33.0,-100.00,NW,311,5.0,8.0,94,0.00,,,0.11,1.000000,,2013-03-01 08:22:00,
2013-03-01 03:53:00,34.0,32.0,-100.00,NW,314,4.0,10.0,93,0.00,,,0.11,1.000000,,2013-03-01 08:53:00,
2013-03-01 04:02:00,34.0,32.0,-100.00,NW,314,4.0,10.0,93,0.00,,,0.11,1.000000,,2013-03-01 09:02:00,
2013-03-01 04:12:00,34.0,32.0,-100.00,NW,314,4.0,10.0,93,0.00,,,0.11,1.000000,,2013-03-01 09:12:00,
2013-03-01 04:22:00,34.0,32.0,-100.00,NW,314,4.0,10.0,93,0.00,,,0.11,1.000000,,2013-03-01 09:22:00,
2013-03-01 04:53:00,32.0,31.0,-100.00,NW,307,2.0,6.0,95,0.00,,,0.11,1.000000,,2013-03-01 09:53:00,
2013-03-01 05:02:00,32.0,31.0,-100.00,NW,307,2.0,6.0,95,0.00,,,0.11,1.000000,,2013-03-01 10:02:00,
2013-03-01 05:12:00,32.0,31.0,-100.00,NW,307,2.0,6.0,95,0.00,,,0.11,1.000000,,2013-03-01 10:12:00,
2013-03-01 05:22:00,32.0,31.0,-100.00,NW,307,2.0,6.0,95,0.00,,,0.11,1.000000,,2013-03-01 10:22:00,
2013-03-01 05:53:00,32.0,31.0,-100.00,WNW,302,3.0,5.0,96,0.00,,,0.11,1.000000,,2013-03-01 10:53:00,
2013-03-01 06:02:00,32.0,31.0,-100.00,WNW,302,3.0,5.0,96,0.00,,,0.11,1.000000,,2013-03-01 11:02:00,
2013-03-01 06:12:00,32.0,31.0,-100.00,WNW,302,3.0,5.0,96,0.00,,,0.11,1.000000,,2013-03-01 11:12:00,
2013-03-01 06:22:00,32.0,31.0,-100.00,WNW,302,3.0,5.0,96,0.00,,,0.11,1.000000,,2013-03-01 11:22:00,
2013-03-01 06:53:00,33.0,32.0,-100.00,WNW,303,3.0,6.0,97,0.00,,,0.11,1.000000,,2013-03-01 11:53:00,
2013-03-01 07:02:00,33.0,32.0,-100.00,WNW,303,3.0,6.0,97,0.00,,,0.11,1.000000,,2013-03-01 12:02:00,
2013-03-01 07:11:00,33.0,32.0,-100.00,WNW,303,3.0,6.0,97,0.00,,,0.11,1.000000,,2013-03-01 12:11:00,
2013-03-01 07:22:00,33.0,32.0,-100.00,WNW,303,3.0,6.0,97,0.00,,,0.11,1.000000,,2013-03-01 12:22:00,
2013-03-01 07:52:00,36.0,35.0,-100.00,WNW,287,2.0,5.0,95,0.00,,,0.11,63.000000,,2013-03-01 12:52:00,
2013-03-01 08:01:00,36.0,35.0,-100.00,WNW,287,2.0,5.0,95,0.00,,,0.11,63.000000,,2013-03-01 13:01:00,
2013-03-01 08:12:00,36.0,35.0,-100.00,WNW,287,2.0,5.0,95,0.00,,,0.11,63.000000,,2013-03-01 13:12:00,
2013-03-01 08:22:00,36.0,35.0,-100.00,WNW,287,2.0,5.0,95,0.00,,,0.11,63.000000,,2013-03-01 13:22:00,
2013-03-01 08:52:00,40.0,35.0,-100.00,NW,322,6.0,10.0,82,0.00,,,0.11,233.000000,,2013-03-01 13:52:00,
2013-03-01 09:02:00,40.0,35.0,-100.00,NW,322,6.0,10.0,82,0.00,,,0.11,233.000000,,2013-03-01 14:02:00,
2013-03-01 09:12:00,40.0,35.0,-100.00,NW,322,6.0,10.0,82,0.00,,,0.11,233.000000,,2013-03-01 14:12:00,
2013-03-01 09:22:00,40.0,35.0,-100.00,NW,322,6.0,10.0,82,0.00,,,0.11,233.000000,,2013-03-01 14:22:00,
2013-03-01 09:52:00,45.0,34.0,-100.00,North,352,9.0,14.0,64,0.00,,,0.11,402.000000,,2013-03-01 14:52:00,
2013-03-01 10:02:00,45.0,34.0,-100.00,North,352,9.0,14.0,64,0.00,,,0.11,402.000000,,2013-03-01 15:02:00,
2013-03-01 10:11:00,45.0,34.0,-100.00,North,352,9.0,14.0,64,0.00,,,0.11,402.000000,,2013-03-01 15:11:00,
2013-03-01 10:21:00,45.0,34.0,-100.00,North,352,9.0,14.0,64,0.00,,,0.11,402.000000,,2013-03-01 15:21:00,
2013-03-01 10:52:00,45.0,31.0,-100.00,North,359,10.0,17.0,57,0.00,,,0.11,375.000000,,2013-03-01 15:52:00,
2013-03-01 11:01:00,45.0,31.0,-100.00,North,359,10.0,17.0,57,0.00,,,0.11,375.000000,,2013-03-01 16:01:00,
2013-03-01 11:11:00,45.0,31.0,-100.00,North,359,10.0,17.0,57,0.00,,,0.11,375.000000,,2013-03-01 16:11:00,
2013-03-01 11:22:00,45.0,31.0,-100.00,North,359,10.0,17.0,57,0.00,,,0.11,375.000000,,2013-03-01 16:22:00,
2013-03-01 11:52:00,48.0,29.0,-100.00,NNE,14,8.0,18.0,48,0.00,,,0.11,479.000000,,2013-03-01 16:52:00,
2013-03-01 12:01:00,48.0,29.0,-100.00,NNE,14,8.0,18.0,48,0.00,,,0.11,479.000000,,2013-03-01 17:01:00,
2013-03-01 12:11:00,48.0,29.0,-100.00,NNE,14,8.0,18.0,48,0.00,,,0.11,479.000000,,2013-03-01 17:11:00,
2013-03-01 12:21:00,48.0,29.0,-100.00,NNE,14,8.0,18.0,48,0.00,,,0.11,479.000000,,2013-03-01 17:21:00,
2013-03-01 12:52:00,50.0,26.0,-100.00,NW,324,6.0,19.0,39,0.00,,,0.11,531.000000,,2013-03-01 17:52:00,
2013-03-01 13:02:00,50.0,26.0,-100.00,NW,324,6.0,19.0,39,0.00,,,0.11,531.000000,,2013-03-01 18:02:00,
2013-03-01 13:12:00,50.0,26.0,-100.00,NW,324,6.0,19.0,39,0.00,,,0.11,531.000000,,2013-03-01 18:12:00,
2013-03-01 13:22:00,50.0,26.0,-100.00,NW,324,6.0,19.0,39,0.00,,,0.11,531.000000,,2013-03-01 18:22:00,
2013-03-01 13:52:00,49.0,25.0,-100.00,West,274,5.0,17.0,39,0.00,,,0.11,423.000000,,2013-03-01 18:52:00,
2013-03-01 14:02:00,49.0,25.0,-100.00,West,274,5.0,17.0,39,0.00,,,0.11,423.000000,,2013-03-01 19:02:00,
2013-03-01 14:11:00,49.0,25.0,-100.00,West,274,5.0,17.0,39,0.00,,,0.11,423.000000,,2013-03-01 19:11:00,
2013-03-01 14:21:00,49.0,25.0,-100.00,West,274,5.0,17.0,39,0.00,,,0.11,423.000000,,2013-03-01 19:21:00,
2013-03-01 14:52:00,45.0,33.0,-100.00,SSE,162,3.0,12.0,63,0.00,,,0.10,196.000000,,2013-03-01 19:52:00,
2013-03-01 15:01:00,45.0,33.0,-100.00,SSE,162,3.0,12.0,63,0.00,,,0.10,196.000000,,2013-03-01 20:01:00,
2013-03-01 15:11:00,45.0,33.0,-100.00,SSE,162,3.0,12.0,63,0.00,,,0.10,196.000000,,2013-03-01 20:11:00,
2013-03-01 15:21:00,45.0,33.0,-100.00,SSE,162,3.0,12.0,63,0.00,,,0.10,196.000000,,2013-03-01 20:21:00,
2013-03-01 15:52:00,46.0,24.0,-100.00,NW,316,7.0,15.0,42,0.00,,,0.10,136.000000,,2013-03-01 20:52:00,
2013-03-01 16:02:00,46.0,24.0,-100.00,NW,316,7.0,15.0,42,0.00,,,0.10,136.000000,,2013-03-01 21:02:00,
2013-03-01 16:11:00,46.0,24.0,-100.00,NW,316,7.0,15.0,42,0.00,,,0.10,136.000000,,2013-03-01 21:11:00,
2013-03-01 16:21:00,46.0,24.0,-100.00,NW,316,7.0,15.0,42,0.00,,,0.10,136.000000,,2013-03-01 21:21:00,
2013-03-01 16:52:00,45.0,25.0,-100.00,North,353,8.0,15.0,45,0.00,,,0.09,63.000000,,2013-03-01 21:52:00,
2013-03-01 17:01:00,45.0,25.0,-100.00,North,353,8.0,15.0,45,0.00,,,0.09,63.000000,,2013-03-01 22:01:00,
2013-03-01 17:12:00,45.0,25.0,-100.00,North,353,8.0,15.0,45,0.00,,,0.09,63.000000,,2013-03-01 22:12:00,
2013-03-01 17:22:00,45.0,25.0,-100.00,North,353,8.0,15.0,45,0.00,,,0.09,63.000000,,2013-03-01 22:22:00,
2013-03-01 17:52:00,43.0,24.0,-100.00,North,350,8.0,19.0,47,0.00,,,0.01,18.000000,,2013-03-01 22:52:00,
2013-03-01 18:01:00,43.0,24.0,-100.00,North,350,8.0,19.0,47,0.00,,,0.01,18.000000,,2013-03-01 23:01:00,
2013-03-01 18:11:00,43.0,24.0,-100.00,North,350,8.0,19.0,47,0.00,,,0.01,18.000000,,2013-03-01 23:11:00,
2013-03-01 18:21:00,43.0,24.0,-100.00,North,350,8.0,19.0,47,0.00,,,0.01,18.000000,,2013-03-01 23:21:00,
2013-03-01 18:52:00,42.0,25.0,-100.00,North,356,7.0,14.0,50,0.00,,,0.01,1.000000,,2013-03-01 23:52:00,
2013-03-01 19:02:00,42.0,25.0,-100.00,North,356,7.0,14.0,50,0.00,,,0.01,1.000000,,2013-03-02 00:02:00,
2013-03-01 19:12:00,42.0,25.0,-100.00,North,356,7.0,14.0,50,0.00,,,0.01,1.000000,,2013-03-02 00:12:00,
2013-03-01 19:22:00,42.0,25.0,-100.00,North,356,7.0,14.0,50,0.00,,,0.01,1.000000,,2013-03-02 00:22:00,
2013-03-01 19:52:00,40.0,24.0,-100.00,North,0,9.0,17.0,52,0.00,,,0.01,0.000000,,2013-03-02 00:52:00,
2013-03-01 20:01:00,40.0,24.0,-100.00,North,0,9.0,17.0,52,0.00,,,0.01,0.000000,,2013-03-02 01:01:00,
2013-03-01 20:11:00,40.0,24.0,-100.00,North,0,9.0,17.0,52,0.00,,,0.01,0.000000,,2013-03-02 01:11:00,
2013-03-01 20:21:00,40.0,24.0,-100.00,North,0,9.0,17.0,52,0.00,,,0.01,0.000000,,2013-03-02 01:21:00,
2013-03-01 20:52:00,40.0,23.0,-100.00,North,350,8.0,16.0,51,0.00,,,0.00,1.000000,,2013-03-02 01:52:00,
2013-03-01 21:01:00,40.0,23.0,-100.00,North,350,8.0,16.0,51,0.00,,,0.00,1.000000,,2013-03-02 02:01:00,
2013-03-01 21:11:00,40.0,23.0,-100.00,North,350,8.0,16.0,51,0.00,,,0.00,1.000000,,2013-03-02 02:11:00,
2013-03-01 21:22:00,40.0,23.0,-100.00,North,350,8.0,16.0,51,0.00,,,0.00,1.000000,,2013-03-02 02:22:00,
2013-03-01 21:52:00,39.0,24.0,-100.00,NW,313,3.0,12.0,54,0.00,,,0.00,0.000000,,2013-03-02 02:52:00,
2013-03-01 22:02:00,39.0,24.0,-100.00,NW,313,3.0,12.0,54,0.00,,,0.00,0.000000,,2013-03-02 03:02:00,
2013-03-01 22:11:00,39.0,24.0,-100.00,NW,313,3.0,12.0,54,0.00,,,0.00,0.000000,,2013-03-02 03:11:00,
2013-03-01 22:22:00,39.0,24.0,-100.00,NW,313,3.0,12.0,54,0.00,,,0.00,0.000000,,2013-03-02 03:22:00,
2013-03-01 22:53:00,39.0,24.0,-100.00,NNW,328,4.0,9.0,54,0.00,,,0.00,1.000000,,2013-03-02 03:53:00,
2013-03-01 23:02:00,39.0,24.0,-100.00,NNW,328,4.0,9.0,54,0.00,,,0.00,1.000000,,2013-03-02 04:02:00,
2013-03-01 23:12:00,39.0,24.0,-100.00,NNW,328,4.0,9.0,54,0.00,,,0.00,1.000000,,2013-03-02 04:12:00,
2013-03-01 23:22:00,39.0,24.0,-100.00,NNW,328,4.0,9.0,54,0.00,,,0.00,1.000000,,2013-03-02 04:22:00,
2013-03-01 23:52:00,38.0,24.0,-100.00,NW,317,4.0,9.0,56,0.00,,,0.00,1.000000,,2013-03-02 04:52:00,